Showing default

KINEIS-1C, 60081

Orbit data source: Space-Track

KINEIS-1C, 60081 is a French payload satellite in SSO that was launched on Thu, 20 Jun 2024 UTC via an ELECTRON launch vehicle from the Rocket Lab Launch Complex (RLLC). Payload-class satellites include a variety of spacecraft equipped with specific instruments for various scientific and technological missions. These include communications satellites like Starlink; space stations such as the ISS; scientific satellites like the Hubble; Earth observation satellites from companies like Planet Labs, Umbra, and HawkEye 360; GPS; miniature CubeSats for education and research; and military/defense satellites.

Loading next visibility...
Identifier
60081, 2024-114C
Orbit
SSO
Country
Flag of FRFR
Related business
Manufacturer
KINEIS
Mission
Operational Commercial Communications
Bus & Motor
CUBESAT 16U, Unknown motor
Mass
28 kg wet, 28 kg dry
Launch date (UTC)
2024-06-20 (2 years ago)
Launch vehicle
ELECTRON
Launch site
Rocket Lab Launch Complex (RLLC)
Object type
Payload
Rocket body
Debris
Shape & HBR
Box + 2 Pan + 1 Ant, 1.0 m
Radar Cross Section
0.229 m², Medium (>0.1 m² and < 1m²)

Expand to show TLE details & history
Last TLE update: 11 hours ago

TLE from 11 hours ago
0 KINEIS-1C
1 60081U 24114C   26130.51032773  .00000613  00000-0  86880-4 0  9991
2 60081  97.9866 154.7151 0000970  56.2801 303.8503 14.80564050101809
Epoch: 2026-05-10T12:14Z
TLE epoch observation values (Epoch: 2026-05-10T12:14:52.315Z)
Latitude
-0.00008°
Longitude
102.68476°
Altitude
630.185 km
Speed
7.544 km/s
True Right ascension
10h 18m 51s
True Declination
0° 00' 00"
Sunlit
Object was in daylight at epoch
Visualization orbit readout
Latitude
Unknown
Longitude
Unknown
Altitude
Unknown
Speed
Unknown
Apparent Right ascension
Unknown
Apparent Declination
Unknown
Sunlit
N/A
Visualization observer readout
Local Sidereal Time
07:08:29
Azimuth
Unknown
Elevation
Unknown
Doppler factor
Unknown
Orbital elements
Apogee altitude
625.268 km
Perigee altitude
623.909 km
Semi-major axis
7,002.725 km
Eccentricity
0.0001
Inclination
97.9866°
RAAN
154.7151°
Arg. of periapsis
56.2801°
True anomaly
303.84107°
Mean anomaly
303.8503°
Eccentric anomaly
303.84568°
Mean motion
3.70376 °/min
Orbital period
97.2 mins
BSTAR
0.00008688
Loading maneuver chart data...
Computing Atmospheric mass density...
Loading historical data...
Loading historical data...
Loading historical data...
Loading historical data...
Loading historical data...
Loading historical data...
Loading historical data...

Documentation

Showing up to 5 results
|